Regional Weather Roundup
Issued by NWS

Home | Current Version | Previous Version | Text Only | Print | Product List | Glossary Off
Versions: 1 2 3 4 5 6 7 8 9 10 11 12 13 14 15 16 17 18 19 20 21 22 23 24 25 26 27 28 29 30 31 32 33 34 35 36 37 38 39 40 41 42 43 44 45 46 47 48 49 50

000
ASUS43 KBIS 221820
RWRND

NORTH DAKOTA REGIONAL WEATHER ROUNDUP
NATIONAL WEATHER SERVICE BISMARCK ND
1200 PM CST SAT NOV 22 2014

NOTE: "FAIR" INDICATES FEW OR NO CLOUDS BELOW 12,000 FEET WITH NO
SIGNIFICANT WEATHER AND/OR OBSTRUCTIONS TO VISIBILITY.


NDZ001>003-009>011-017-221900-
NORTHWEST NORTH DAKOTA

CITY           SKY/WX    TMP DP  RH WIND       PRES   REMARKS
WILLISTON      CLOUDY    40  28  62 S6        29.32F
6HR MIN TEMP:  27; 6HR MAX TEMP:  40;

MINOT          CLOUDY    37  29  72 E8        29.39F
MINOT AFB      CLOUDY    37  33  85 E7        29.39F
$$

NDZ018>021-031>035-040>046-221900-
SOUTHWEST NORTH DAKOTA

CITY           SKY/WX    TMP DP  RH WIND       PRES   REMARKS
BISMARCK       CLOUDY    40  28  62 SE6       29.44F
6HR MIN TEMP:  21; 6HR MAX TEMP:  41;

DICKINSON      CLOUDY    40  27  59 S14       29.34F
GARRISON         N/A     38  31  76 SE9       29.38F
6HR MIN TEMP:  25; 6HR MAX TEMP:  38;

HETTINGER ARPT CLOUDY    39  28  64 SW7       29.40F
$$

NDZ004>008-012>016-024-026-027-054-221900-
NORTHEAST NORTH DAKOTA

CITY           SKY/WX    TMP DP  RH WIND       PRES   REMARKS
GRAND FORKS    SUNNY     39  29  67 S8        29.55F
GRND FRKS AFB  MOSUNNY   40  30  68 S6        29.54F HAZE
DEVILS LAKE    CLOUDY    36  25  64 SE8       29.46F
$$

NDZ022-023-025-028>030-036>039-047>053-221900-
SOUTHEAST NORTH DAKOTA

CITY           SKY/WX    TMP DP  RH WIND       PRES   REMARKS
FARGO          SUNNY     42  29  59 S12       29.57F
6HR MIN TEMP:  22; 6HR MAX TEMP:  42;

JAMESTOWN      PTSUNNY   40  28  62 S10       29.48F
$$




USA.gov is the U.S. government's official web portal to all federal, state and local government web resources and services.